Regional Weather Roundup
Issued by NWS Mobile, AL

Home | Current Version | Previous Version | Text Only | Print | Product List | Glossary On
Versions: 1 2 3 4 5 6 7 8 9 10 11 12 13 14 15 16 17 18 19 20 21 22 23 24 25 26 27 28 29
000
ASUS44 KMOB 260510
RWRMOB
REGIONAL WEATHER ROUNDUP
NATIONAL WEATHER SERVICE MOBILE AL
1200 AM CDT SUN OCT 26 2014

NOTE: "FAIR" INDICATES FEW OR NO CLOUDS BELOW 12,000 FEET WITH NO
      SIGNIFICANT WEATHER AND/OR OBSTRUCTIONS TO VISIBILITY.

  * THESE STATIONS ARE PART OF THE UNIVERSITY OF SOUTH ALABAMA
    MESONET AND ARE NOT UNDER NWS OR FAA QUALITY CONTROL.

ALZ061>064-260600-
COASTAL ALABAMA

CITY           SKY/WX    TMP DP  RH WIND       PRES   REMARKS
MOBILE REG APT CLEAR     55  54  96 CALM      30.07F
BROOKLEY FIELD CLEAR     58  57  97 CALM      30.07F
USA CAMPUS*    NOT AVBL
DOG RIVER*     NOT AVBL


CITY           SKY/WX    TMP DP  RH WIND       PRES   REMARKS
MOUNT VERNON*  NOT AVBL
SARALAND*      NOT AVBL
BAY MINETTE*   NOT AVBL
LOXLEY*        NOT AVBL
ROBERTSDALE*   NOT AVBL
FAIRHOPE*      NOT AVBL
ELBERTA*       NOT AVBL
FOLEY*         NOT AVBL
GRAND BAY*     NOT AVBL
DAUPHIN ISLND* NOT AVBL
BON SCOUR NWR* NOT AVBL
GULF SHORES    CLEAR     55  54  95 W3        30.06S

$$

ALZ051>060-260600-
INTERIOR SOUTHWEST AND SOUTH CENTRAL ALABAMA

CITY           SKY/WX    TMP DP  RH WIND       PRES   REMARKS
GREENVILLE     CLEAR     55  51  86 CALM      30.05F
EVERGREEN      CLEAR     55  52  89 CALM      30.06F
CASTLEBERRY*   NOT AVBL
ATMORE*        NOT AVBL
DIXIE*         NOT AVBL
ANDALUSIA/OPP  CLEAR     57  51  80 CALM      30.05F
ANDALUSIA*     NOT AVBL
FLORALA APT    CLEAR     54  49  83 CALM      30.06F
FLORALA*       NOT AVBL

$$

FLZ001>006-260600-
WESTERN FLORIDA PANHANDLE

CITY           SKY/WX    TMP DP  RH WIND       PRES   REMARKS
PENSACOLA      CLEAR     59  52  77 N5        30.04F
NAS PENSACOLA  CLEAR     54  52  93 CALM      30.04F
MILTON         CLEAR     54  50  86 N3        30.05F
WHTNG S FIELD  CLEAR     54  51  90 NW3       30.05F


CITY           SKY/WX    TMP DP  RH WIND       PRES   REMARKS
WALNUT HILL*   NOT AVBL
JAY*           NOT AVBL
DUKE FIELD     CLEAR     51  48  89 CALM      30.04F
CRESTVIEW      CLEAR     50  49  96 CALM      30.06F
VALPARAISO     CLEAR     60  50  71 N6        30.04F
DESTIN         CLEAR     65  55  70 N6        30.04F

$$

MSZ076-079-260600-
INTERIOR SOUTHEAST MISSISSIPPI

CITY           SKY/WX    TMP DP  RH WIND       PRES   REMARKS
LEAKESVILLE*   NOT AVBL
AGRICOLA*      NOT AVBL

$$

MARINE OBSERVATIONS

STATION/POSITION TIME  TEMP    WIND        PRES    WAVE
                       AIR SEA DIR/SP/G            HT/PER
                 (UTC) (F)     (DEG/KT/KT) (MB)    (FT/S)
PASCAGOULA       0500   66     350/  2/  3 1017.7F
PETIT BOIS ISLND 0500   71     310/  5/  6 1018.2S
GRAND BAY        0400   65      30/  4     1019.0S
KATRINA CUT      0400   70     290/  5     1018.6F
CEDAR POINT      0400   70     270/  5     1018.6S
E DAUPHIN ISLAND 0355   71     240/  4/  4 1018.4F
MIDDLE BAY LIGHT 0400   69     280/  5     1017.3F
USCG MOBILE BAY  0500   64 73   CALM  /  1 1016.6F
STATE DOCKS      0500   64 75              1017.6F
MEAHER PARK      0400   64        CALM     1018.3S
WEEKS BAY        0400   57                   N/A
FORT MORGAN      0500   71     300/  7/  7 1017.3F
12 S ORANGE BCH  0500   75 77   20/  8/  8 1017.3F   1
PENSACOLA BAY    0500   66 72  350/  2/  4 1017.5F
64 S DAUPHIN ISL 0400   74 78  340/ 12/ 14 1018.4F   2/ 4
67 S FORT MORGAN 0400   74                 1017.6F

$$

SELECTED LOCATIONS ACROSS THE REGION

CITY           SKY/WX    TMP DP  RH WIND       PRES   REMARKS
NEW ORLEANS    CLEAR     64  58  80 CALM      30.08F
GULFPORT       CLEAR     60  58  92 CALM      30.06F
PASCAGOULA AP  CLEAR     55  54  96 CALM      30.07F FOG
PASCAGOULA*    NOT AVBL
HATTIESBURG    CLEAR     59  57  93 CALM      30.09S
LAUREL         CLEAR     57  54  88 CALM      30.09S
MERIDIAN       CLEAR     58  56  93 CALM      30.08F
JACKSON        CLEAR     59  57  93 CALM      30.08F
MONTGOMERY     CLEAR     58  53  84 CALM      30.05F
TROY           CLEAR     51  49  92 CALM      30.06F
KINSTON*       NOT AVBL
GENEVA*        NOT AVBL
ASHFORD*       NOT AVBL
DOTHAN         CLEAR     57  52  83 NW6       30.07F
PANAMA CITY    CLEAR     55  50  83 CALM      30.02F

$$




USA.gov is the U.S. government's official web portal to all federal, state and local government web resources and services.